Date,TemperatureHighF,TemperatureAvgF,TemperatureLowF,DewpointHighF,DewpointAvgF,DewpointLowF,HumidityHigh,HumidityAvg,HumidityLow,PressureMaxIn,PressureMinIn,WindSpeedMaxMPH,WindSpeedAvgMPH,GustSpeedMaxMPH,PrecipitationSumIn
2012-1-1,58.9,50.3,46.1,50.2,44.4,39.8,98,82,49,29.98,29.93,4,1,6,0.01
2012-1-2,38.1,33.9,28.0,15.4,13.6,9.9,57,43,32,30.20,30.09,3,2,11,0.00
2012-1-6,32.8,28.6,26.8,28.8,24.4,23.2,92,84,75,30.15,30.09,0,0,1,0.00
2012-1-7,60.3,50.4,40.7,54.4,46.0,31.7,100,85,69,30.08,29.92,1,0,9,0.07
2012-1-8,51.6,47.4,44.4,51.6,45.4,40.3,100,93,71,30.20,30.08,0,0,2,0.01
2012-1-9,44.7,44.5,44.2,44.7,44.5,44.2,100,100,100,30.15,30.14,0,0,0,0.00
2012-1-12,47.8,37.5,29.3,43.8,33.1,22.1,89,84,74,29.79,29.48,4,3,9,0.00
2012-1-13,27.5,24.9,23.4,20.6,13.6,11.6,83,62,54,30.11,29.96,3,2,10,0.00
2012-1-17,58.9,58.6,58.3,55.4,55.4,55.4,90,89,88,29.84,29.82,4,3,4,0.00
2012-1-29,50.4,35.8,23.4,25.2,18.6,8.4,95,58,18,30.42,30.29,3,0,12,0.00
2012-2-3,59.8,44.6,33.3,39.5,36.2,32.0,97,75,40,30.40,30.26,0,0,6,0.00
2012-2-4,51.5,48.5,45.6,46.0,45.2,44.0,94,88,81,30.19,30.09,1,0,3,0.00
2012-2-5,55.6,50.3,42.5,53.1,46.0,39.5,100,87,59,30.15,29.97,1,0,5,0.00
2012-2-6,52.5,43.8,36.7,40.7,38.0,33.6,96,81,60,30.21,30.12,1,0,14,0.00
2012-2-7,35.8,34.7,33.6,33.2,32.5,31.8,93,91,90,30.20,30.20,0,0,0,0.00
2012-2-8,47.9,41.0,35.9,36.2,33.1,28.8,90,74,52,30.28,30.15,1,0,11,0.00
2012-2-9,44.5,35.3,31.8,27.9,27.4,27.0,84,73,51,30.23,30.20,0,0,2,0.00
2012-2-10,44.1,33.9,26.8,34.4,29.2,25.1,96,83,63,30.19,29.96,1,0,3,0.00
2012-2-11,38.5,31.2,21.5,35.3,22.9,4.8,96,73,45,30.39,29.90,4,1,17,0.00
2012-2-12,35.5,25.5,17.7,13.5,9.4,5.4,66,51,35,30.47,30.34,1,0,7,0.00
2012-2-13,42.0,28.2,17.7,23.9,17.5,14.2,87,66,38,30.33,30.09,1,0,5,0.00
2012-2-14,35.7,35.1,34.3,32.0,28.0,23.4,88,75,64,30.05,29.98,0,0,1,0.00
2012-2-15,58.2,46.9,36.1,43.4,40.9,35.6,100,81,54,30.24,30.08,1,0,6,0.00
2012-2-16,56.9,49.0,45.3,54.8,47.6,42.9,100,95,81,30.12,30.03,1,0,4,0.02
2012-2-17,59.2,49.4,42.2,44.8,39.7,34.6,100,72,41,30.18,30.08,1,0,5,0.00
2012-2-18,61.5,56.7,52.2,37.3,33.3,31.1,53,42,32,29.97,29.92,0,0,3,0.04
2012-2-19,49.5,42.2,33.3,44.1,39.2,32.2,100,91,52,30.01,29.70,1,0,6,0.73
2012-2-20,53.0,38.7,30.0,34.7,32.1,29.8,100,80,45,30.29,30.07,1,0,9,0.00
2012-2-21,63.0,47.5,29.4,38.8,33.0,28.3,99,63,29,30.14,29.89,3,1,14,0.00
2012-2-22,52.1,46.9,35.8,52.1,42.1,28.9,100,85,57,29.93,29.51,1,0,9,0.31
2012-2-23,78.2,63.2,47.3,58.1,48.5,40.9,100,66,27,29.61,29.39,2,1,15,0.07
2012-2-24,71.5,66.2,45.4,56.4,49.9,25.1,63,56,35,29.91,29.43,3,2,10,0.07
2012-2-25,50.1,39.9,32.6,25.5,20.3,12.3,72,48,22,30.34,30.09,4,1,20,0.00
2012-2-26,57.2,39.3,25.3,27.6,22.4,15.1,88,56,24,30.43,30.29,1,0,20,0.00
2012-2-27,40.5,36.7,33.4,32.9,30.1,26.6,80,77,73,30.37,30.31,0,0,20,0.00
2012-2-28,40.8,39.4,38.2,36.7,35.9,35.2,92,87,83,30.35,30.34,0,0,0,0.00
2012-2-29,70.3,70.2,70.0,55.9,55.3,54.7,61,59,58,29.78,29.74,3,2,14,0.00
2012-3-2,73.1,57.7,42.7,59.5,48.1,35.2,98,71,51,29.83,29.52,4,1,25,0.18
2012-3-3,56.9,48.2,41.4,56.6,33.8,18.5,99,63,26,29.88,29.59,1,0,10,0.14
2012-3-4,43.5,40.7,38.8,27.3,24.3,22.4,63,52,43,29.97,29.94,1,0,7,0.01
2012-3-5,50.3,43.6,38.1,34.0,26.3,20.4,68,51,34,30.33,29.81,7,2,32,0.01
2012-3-8,57.1,55.1,54.6,54.7,54.4,53.0,100,98,86,30.17,30.05,2,0,3,0.96
2012-3-9,54.6,51.2,43.1,54.6,50.4,37.0,100,97,79,30.28,30.11,1,0,4,0.09
2012-3-11,69.2,50.1,32.1,44.4,33.5,28.5,93,59,23,30.46,30.27,1,0,5,0.00
2012-3-12,57.5,57.5,57.5,53.7,53.7,53.7,87,87,87,30.16,30.16,0,0,0,0.00
2012-3-13,77.3,63.0,54.6,60.0,53.2,45.1,100,75,32,30.20,30.08,2,0,12,0.09
2012-3-14,80.4,63.6,48.4,55.4,49.4,43.4,100,65,28,30.24,30.13,1,0,7,0.00
2012-3-15,73.8,71.3,69.0,53.1,51.8,49.3,57,50,42,30.13,30.12,1,0,4,0.00
2012-3-16,78.4,62.7,54.3,59.3,56.8,54.3,100,84,47,30.19,30.08,3,0,14,0.15
2012-3-17,76.0,61.6,52.7,59.3,56.3,52.7,100,85,53,30.25,30.12,1,0,2,0.02
2012-3-18,60.8,59.5,58.5,59.1,57.5,55.5,100,93,86,30.23,30.14,0,0,1,0.00
2012-4-2,84.2,66.6,56.4,71.3,61.6,56.1,100,86,45,29.87,29.73,1,0,10,0.13
2012-4-3,84.4,66.0,60.0,65.0,62.1,59.2,100,89,49,29.95,29.81,1,0,6,0.42
2012-4-4,82.3,66.5,55.6,62.4,59.0,55.6,100,80,42,29.86,29.65,1,0,7,0.24
2012-4-5,73.6,63.8,58.3,62.9,59.7,56.5,100,87,66,29.72,29.62,0,0,5,0.11
2012-4-6,70.0,57.6,49.4,56.1,44.8,34.6,100,67,30,30.11,29.74,1,0,6,0.15
2012-4-7,74.1,55.3,39.5,43.5,38.2,27.4,96,59,18,30.25,30.13,1,0,6,0.08
2012-4-8,74.8,67.5,48.4,46.3,42.8,38.0,89,43,31,30.19,30.05,1,0,5,0.02
2012-4-9,73.1,57.7,43.0,42.9,37.8,28.4,90,53,22,30.11,29.94,1,0,12,0.00
2012-4-10,55.2,49.8,46.1,42.5,40.6,38.2,81,71,58,30.01,29.97,0,0,1,0.00
2012-4-11,59.2,48.1,37.2,30.3,26.7,24.0,75,45,27,30.20,30.05,1,0,3,0.00
2012-4-12,65.7,47.2,32.0,38.6,30.1,19.5,96,58,18,30.28,30.11,1,0,3,0.00
2012-4-13,44.2,39.6,36.4,36.5,34.5,32.0,89,82,66,30.20,30.13,0,0,1,0.00
2012-4-16,65.1,62.5,59.4,56.3,55.2,54.3,88,77,68,30.06,30.00,0,0,1,0.00
2012-4-22,44.8,44.7,44.5,37.0,36.7,36.4,74,73,73,29.82,29.82,0,0,2,0.05
2012-4-30,86.9,72.3,59.4,65.6,60.3,55.6,100,70,36,30.13,29.99,1,0,7,0.00
2012-5-1,88.7,74.1,61.4,66.2,60.9,56.7,94,67,34,30.08,29.95,0,0,10,0.00
2012-5-2,88.5,74.4,62.8,66.3,63.9,61.7,99,73,42,30.10,29.98,0,0,4,0.00
2012-5-3,85.8,73.1,63.8,67.3,63.8,59.8,100,76,43,30.12,30.00,0,0,5,0.00
2012-5-6,85.8,80.6,72.0,65.5,63.3,58.6,76,56,42,30.00,29.86,0,0,2,0.00
2012-6-24,96.0,78.6,64.4,68.5,62.2,51.1,96,63,23,29.96,29.82,0,0,4,0.00
2012-6-25,96.5,79.3,64.9,66.1,62.6,58.6,90,60,29,29.84,29.70,0,0,5,0.00
2012-6-26,88.5,76.3,65.4,61.0,50.2,40.5,62,43,19,29.87,29.75,1,0,6,0.00
2012-6-27,91.7,72.8,56.5,58.3,51.6,42.0,90,53,18,30.00,29.86,0,0,4,0.00
2012-6-28,101.4,81.1,60.0,61.5,54.9,48.5,84,48,17,30.02,29.89,0,0,7,0.00
2012-6-29,74.5,74.1,73.2,60.7,60.4,60.2,64,62,61,29.91,29.90,0,0,0,0.00
2012-6-30,101.1,91.2,83.3,68.2,63.7,56.5,58,42,23,29.83,29.77,0,0,3,0.00
2012-7-1,105.0,88.6,75.0,71.7,66.3,60.4,82,52,25,29.93,29.80,1,0,3,0.00
2012-7-2,84.0,82.4,79.1,68.1,67.1,66.5,69,60,56,30.02,29.85,0,0,0,0.00
2012-10-8,49.0,47.8,44.7,48.8,47.1,44.2,100,97,87,30.20,30.09,0,0,4,0.00
2012-10-9,58.8,52.6,48.2,50.9,48.8,46.0,100,88,64,30.16,30.03,0,0,3,0.00
2012-10-10,61.5,52.8,45.0,54.2,49.7,45.0,100,90,73,30.20,30.03,1,0,6,0.00
2012-10-11,70.8,52.3,42.2,49.5,44.8,36.0,100,81,32,30.28,30.18,0,0,4,0.01
2012-10-14,73.8,68.0,64.4,59.0,57.8,56.7,80,70,56,29.97,29.87,0,0,7,0.00
2012-10-15,71.2,67.0,63.8,62.9,60.0,58.1,97,79,64,29.90,29.83,1,0,2,0.00
2012-10-22,78.0,58.6,45.0,53.8,48.8,44.6,100,74,31,30.22,30.10,0,0,4,0.00
2012-10-23,77.8,61.4,50.1,56.0,52.1,49.5,100,75,41,30.17,30.07,0,0,5,0.00
2012-10-24,78.5,61.2,49.0,57.9,52.5,48.8,100,77,40,30.19,30.05,0,0,4,0.00
2012-10-25,79.3,61.4,48.7,55.8,51.9,48.6,100,75,36,30.11,29.99,0,0,5,0.00
2012-10-26,77.5,62.9,52.5,58.7,54.3,51.0,99,76,46,30.06,29.90,1,0,5,0.00
2012-10-27,59.2,53.8,49.5,55.9,51.0,48.1,100,90,82,29.95,29.85,0,0,4,0.00
2012-10-28,49.4,47.0,42.8,47.9,45.4,42.0,100,94,84,29.95,29.84,0,0,3,0.58
2012-10-29,43.0,41.4,39.8,42.3,37.4,32.5,98,86,73,29.94,29.79,1,0,5,0.06
2012-11-6,50.0,44.2,40.0,45.1,40.6,35.1,100,87,72,30.02,29.89,0,0,3,0.09
2012-11-7,46.1,44.6,41.1,44.6,43.0,39.5,100,94,86,30.07,29.85,0,0,3,0.24
2012-11-8,56.9,43.4,35.2,41.7,37.2,32.8,100,82,41,30.22,30.07,0,0,3,0.00
2012-11-9,62.6,45.0,32.4,42.7,36.0,31.7,100,76,33,30.32,30.18,0,0,3,0.00
2012-11-10,69.2,49.6,35.7,42.5,37.7,33.6,100,69,30,30.36,30.22,0,0,3,0.00
2012-11-11,72.2,51.2,36.8,45.3,39.3,36.3,100,71,29,30.38,30.22,0,0,4,0.00
2012-11-12,58.9,46.3,41.7,56.6,44.3,38.5,96,93,88,30.36,30.15,2,0,6,0.18
2012-11-13,50.3,40.1,32.0,38.7,31.4,28.1,94,73,43,30.45,30.36,1,0,4,0.00
2012-11-14,50.3,38.2,27.7,35.8,31.3,26.7,100,78,46,30.42,30.26,0,0,1,0.00
2012-11-15,37.2,36.3,35.2,34.5,33.7,33.0,92,90,86,30.26,30.24,0,0,1,0.00
2012-11-16,57.7,42.6,32.8,40.8,32.0,24.5,100,72,29,30.36,30.25,1,0,7,0.00
2012-11-17,61.4,43.0,29.3,35.0,29.8,24.7,95,65,25,30.46,30.34,0,0,6,0.00
2012-11-18,60.8,44.2,29.3,36.9,32.2,27.5,95,67,34,30.45,30.32,1,0,3,0.00
2012-11-19,61.5,44.6,32.1,42.1,37.6,31.3,100,79,48,30.35,30.18,1,0,2,0.00
2012-11-20,64.9,48.3,37.8,44.1,38.0,32.8,99,72,32,30.19,30.05,1,0,3,0.00
2012-11-21,66.5,51.7,42.5,42.7,40.0,37.1,91,67,36,30.17,30.06,1,0,3,0.00
2012-11-22,67.3,48.8,35.7,42.3,38.6,35.0,100,72,34,30.25,30.11,1,0,2,0.00
2012-11-23,62.2,46.5,36.9,48.7,40.5,31.1,97,81,51,30.15,29.99,2,0,3,0.00
2012-11-24,42.8,35.6,26.3,31.6,24.0,18.9,84,64,40,30.21,30.08,1,0,3,0.00
2012-11-25,54.9,36.4,23.4,27.0,19.4,11.4,95,58,18,30.19,30.01,1,0,2,0.00
2012-11-26,61.2,43.6,28.4,43.1,28.6,19.2,94,60,25,30.21,30.07,1,0,2,0.08
2012-11-27,45.6,44.1,40.7,45.6,43.6,39.2,100,98,94,30.27,30.07,0,0,1,0.15
2012-11-28,49.4,39.7,29.9,39.4,32.8,26.7,95,78,41,30.43,30.25,1,0,2,0.00
2012-11-29,55.0,37.5,26.8,37.1,29.8,26.1,100,78,37,30.45,30.30,1,0,1,0.00
2012-11-30,60.6,41.9,28.7,42.6,34.6,27.7,100,78,49,30.38,30.22,0,0,1,0.00
2012-12-1,64.7,47.6,36.2,46.7,40.6,35.2,100,79,48,30.36,30.24,1,0,4,0.00
2012-12-2,70.5,52.0,37.7,49.8,44.9,37.7,100,80,45,30.31,30.17,1,0,5,0.00
2012-12-3,70.7,54.3,43.5,50.6,47.5,43.0,100,81,49,30.27,30.15,0,0,3,0.00
2012-12-4,72.4,56.0,43.4,51.5,47.8,43.2,100,77,44,30.25,30.09,1,0,7,0.00
2012-12-5,56.5,48.3,39.4,51.4,44.9,38.4,97,88,80,30.16,30.09,0,0,3,0.04
2012-12-6,50.4,44.8,37.7,44.4,40.6,36.9,100,86,69,30.18,30.06,0,0,1,0.00
2012-12-7,63.3,48.3,38.1,48.6,43.9,38.1,100,86,57,30.08,29.92,0,0,2,0.00
2012-12-8,70.5,57.1,49.0,53.4,50.5,47.6,98,81,50,29.98,29.88,2,0,4,0.00
2012-12-9,52.4,51.9,50.9,51.9,51.0,49.8,100,97,93,30.01,29.96,0,0,0,0.00
2012-12-10,57.4,53.0,41.4,57.4,52.3,40.7,100,98,90,29.88,29.61,2,0,10,0.82
2012-12-11,41.4,37.1,32.7,40.9,33.3,29.9,99,86,77,30.20,29.88,0,0,10,0.01
2012-12-12,33.1,31.9,30.9,31.5,30.5,29.9,99,95,92,30.30,30.20,0,0,0,0.00
2012-12-13,51.3,36.7,28.1,38.0,32.4,27.6,100,86,55,30.39,30.28,1,0,2,0.00
2012-12-14,55.6,38.6,28.4,41.8,34.0,28.1,100,86,48,30.40,30.20,0,0,2,0.00
2012-12-15,56.6,44.9,36.7,44.9,38.7,35.1,98,81,49,30.20,29.96,0,0,2,0.02
2012-12-16,56.2,50.9,46.0,56.2,50.3,44.9,100,98,86,29.99,29.77,1,0,2,0.37
2012-12-17,54.9,50.5,46.9,53.6,50.0,46.9,100,98,83,29.79,29.59,2,0,5,0.05
2012-12-18,53.2,46.2,33.7,49.2,38.5,30.8,99,76,47,29.94,29.65,1,0,4,0.04
2012-12-19,62.3,44.2,31.5,45.0,37.7,30.0,100,81,49,30.08,29.94,1,0,1,0.02
2012-12-20,53.8,44.5,37.9,49.8,40.3,25.1,100,86,56,30.01,29.52,5,1,20,0.01
2012-12-21,38.5,38.0,36.9,28.8,27.5,25.8,69,66,63,29.77,29.73,2,2,20,0.01